Regional Weather Roundup
Issued by NWS

Home | Current Version | Previous Version | Text Only | Print | Product List | Glossary Off
Versions: 1 2 3 4 5 6 7 8 9 10 11 12 13 14 15 16 17 18 19 20 21 22 23 24 25 26 27

000
ASUS42 KTBW 260717
RWRFL
FLORIDA REGIONAL WEATHER ROUNDUP
NATIONAL WEATHER SERVICE TAMPA BAY RUSKIN FL
300 AM EDT SUN JUN 26 2016

NOTE: "FAIR" INDICATES FEW OR NO CLOUDS BELOW 12,000 FEET WITH NO
SIGNIFICANT WEATHER AND/OR OBSTRUCTIONS TO VISIBILITY.

FLZ001>010-012>015-112-114-115-260800-
PANHANDLE FLORIDA

CITY           SKY/WX    TMP DP  RH WIND       PRES   REMARKS
PENSACOLA      CLEAR     80  74  81 S3        30.07F
MILTON NAS     CLEAR     75  75 100 W3        30.07F
CRESTVIEW      CLEAR     76  73  91 CALM      30.09F
DUKE FIELD     FAIR      79  74  85 W5        30.07F
VALPARAISO     CLEAR     80  75  84 NW3       30.07F
MARY ESTHER    CLEAR     82  75  79 NW2       30.06F
TRI COUNTY     FAIR      76  74  93 CALM      30.08S
PANAMA CITY    FAIR      77  74  90 SW5       30.06F
TYNDALL AFB    CLEAR     81  75  80 W6        30.07F
APALACHICOLA   CLEAR     76  75  97 CALM      30.07F

STATION/POSITION SKY/WX   TEMP    WIND        PRES    WAVE   SWELL
                          AIR SEA DIR/SP/G            HT/PER HT/PER
                          (F)     (DEG/KT/KT) (MB)    (FT/S) (FT/S)
30.1N   87.6W              85 85     CALM     1017.6F   1/ 7
29.2N   88.2W              83 86  210/  8/ 10 1018.5F
28.8N   86.0W              83 83  210/  8/ 10 1018.9    1
PANAMA CITY BEAC           83 85              1019.0F
TOWER C                    82     290/  9/  9 1019.1F
28.5N   84.5W              83 85  210/  6/  8 1018.3F   0

$$
FLZ011-016>038-118-127-128-134-139-239-260800-
NORTH FLORIDA

CITY           SKY/WX    TMP DP  RH WIND       PRES   REMARKS
MARIANNA       PTCLDY    78  76  93 SW6       30.07S
TALLAHASSEE    MOCLDY    80  74  81 CALM      30.07S
PERRY          PTCLDY    75  72  90 NW3       30.08S
LIVE OAK         N/A     77  77 100 CALM      30.08F
CROSS CITY       N/A     75  71  87 CALM      30.06S
LAKE CITY      FAIR      77  72  83 CALM      30.07S
GAINESVILLE    CLEAR     75  70  84 CALM      30.07S
WILLISTON      FAIR      75  73  94 CALM      30.08S
MAYPORT NAS    PTCLDY    80  74  81 S5        30.05F
JACKSONVILLE   MOCLDY    79  73  82 SW5       30.05F
JAX CECIL      MOCLDY    75  73  94 CALM      30.06F
FERNANDINA BEA FAIR      86  73  66 SW5       30.04F
ST AUGUSTINE   CLEAR     80  75  84 SW5       30.07F
PALM COAST     FAIR      77  76  96 CALM      30.07S

STATION/POSITION SKY/WX   TEMP    WIND        PRES    WAVE   SWELL
                          AIR SEA DIR/SP/G            HT/PER HT/PER
                          (F)     (DEG/KT/KT) (MB)    (FT/S) (FT/S)
SHELL POINT                80     270/  6/  7 1017.2
KEATON BEACH               83     290/ 10/ 13 1017.6F
CEDAR KEY                  83     290/  4/  5 1018.5F
FERNANDINA                 85 85              1017.8R
30.7N   81.3W                 83                N/A     3/ 4
MAYPORT                    83 84              1018.4R
31.4N   80.9W              83 82  190/ 12/ 14 1016.5F   3/ 9   2/ 9
ST AUGUSTINE               80 83  210/  6/  7 1018.7F

$$
FLZ040-043>046-052-053-057-058-063-144-260800-
INTERIOR CENTRAL FLORIDA

CITY           SKY/WX    TMP DP  RH WIND       PRES   REMARKS
OCALA          CLEAR     73  72  94 S3        30.08S
THE VILLAGES     N/A     79  77  94 CALM      29.98S
LEESBURG       CLEAR     80  74  81 SW5       30.09R
SANFORD        CLEAR     82  73  74 S8        30.07S
ORLANDO EXEC   CLEAR     83  74  74 S7        30.07F
ORLANDO INTL   MOCLDY    79  73  82 S6        30.08F
KISSIMMEE        N/A     81  75  82 S3        30.08F
WINTER HAVEN   CLEAR     79  75  87 SW3       30.09F
LAKELAND       CLEAR     77  73  88 SE3       30.08F
BARTOW         FAIR      75 N/A N/A CALM      30.09S
OKEECHOBEE     CLEAR     79  73  83 S5        30.08F

$$
FLZ041-047-054-059-064-141-147-260800-
EAST CENTRAL FLORIDA

CITY           SKY/WX    TMP DP  RH WIND       PRES   REMARKS
DAYTONA BEACH  CLEAR     79  74  84 S5        30.07S
DELAND           N/A     79  75  89 CALM      30.09
JFK SPACE CTR  CLEAR     80  74  84 S5        30.07S
CAPE CANAVERAL CLEAR     81  75  82 S8        30.06F
PATRICK AFB    PTCLDY    81  76  83 S8        30.07S
MELBOURNE      PTCLDY    80  75  84 S6        30.07F
VERO BEACH     CLEAR     78  75  90 CALM      30.08F
FT PIERCE      CLEAR     77  75  93 CALM      30.08F
STUART         CLEAR     81  77  89 CALM      30.09F

STATION/POSITION SKY/WX   TEMP    WIND        PRES    WAVE   SWELL
                          AIR SEA DIR/SP/G            HT/PER HT/PER
                          (F)     (DEG/KT/KT) (MB)    (FT/S) (FT/S)
28.5N   80.2W              83 83  190/ 14/ 17 1018.6F
28.9N   78.5W              82 83  180/ 10/ 12 1019.1R
TRIDENT PIER               82 87              1018.6F
28.4N   80.5W                 84                N/A     3/ 4
27.5N   80.2W                 83                N/A     2/ 3

$$
FLZ050-056-061-142-242-148-248-149-249-151-251-155-255-
160-260-260800-
WEST CENTRAL FLORIDA

CITY           SKY/WX    TMP DP  RH WIND       PRES   REMARKS
CRYSTAL RIVER  FAIR      75  72  88 CALM      30.08S
INVERNESS      FAIR      75  75 100 CALM      30.08F
BROOKSVILLE    CLEAR     75  73  93 CALM      30.08F
ZEPHYRHILLS    FAIR      69  67  96 CALM      30.08S
CLEARWATER AIR FAIR      77  77 100 CALM      30.06F
ST PETE CLEARW CLEAR     79  75  87 CALM      30.06F
TAMPA INTL     PTCLDY    80  76  87 CALM      30.07F
TAMPA EXEC       N/A     75  73  94 CALM      30.08S
PLANT CITY     CLEAR     77  77 100 CALM      30.09F
MACDILL AFB    CLEAR     77  77  99 E1        30.06F
PETER O KNIGHT CLEAR     81  77  89 CALM      30.07F
ST PETERSBURG  CLEAR     83  74  74 CALM      30.05F
SARASOTA       CLOUDY    80  75  84 E3        30.05F
VENICE         NOT AVBL

STATION/POSITION SKY/WX   TEMP    WIND        PRES    WAVE   SWELL
                          AIR SEA DIR/SP/G            HT/PER HT/PER
                          (F)     (DEG/KT/KT) (MB)    (FT/S) (FT/S)
27.3N   84.2W                 84                N/A     1/ 4
CLEARWATER BEACH           83 88              1018.5F
MIDDLE TAMPA BAY                              1018.7F
VENICE                     82 87   90/  4/  4 1018.2F

$$
FLZ066-069-070-075>078-162-262-165-265-260800-
SOUTHWEST FLORIDA AND KEYS

CITY           SKY/WX    TMP DP  RH WIND       PRES   REMARKS
PUNTA GORDA    CLEAR     78  76  93 S3        30.08F
FT MYERS       CLEAR     79  74  84 SE5       30.07F
SOUTHWEST INTL CLEAR     79  74  84 CALM      30.08F
NAPLES         CLEAR     79  75  87 CALM      30.07F
MARCO ISLAND   CLEAR     77  72  83 NE3       30.07F
MARATHON       PTCLDY    83  76  79 E5        30.04F
KEY WEST NAS   PTCLDY    83  75  77 E10       30.04F
KEY WEST INTL  PTCLDY    83  77  82 E9        30.05F

STATION/POSITION SKY/WX   TEMP    WIND        PRES    WAVE   SWELL
                          AIR SEA DIR/SP/G            HT/PER HT/PER
                          (F)     (DEG/KT/KT) (MB)    (FT/S) (FT/S)
NAPLES                        88              1018.5F
26.0N   85.6W              83 85  110/ 12/ 14 1018.0F   2/ 4   2/ 6
DRY TORTUGAS               83     120/ 11/ 12 1017.6F
SAND KEY                   84     120/ 13/ 15 1017.8F
LONG KEY                   84 87  110/  8/  9 1018.4F

$$
FLZ067-068-071>074-168-172>174-260800-
SOUTHEAST FLORIDA

CITY           SKY/WX    TMP DP  RH WIND       PRES   REMARKS
W PALM BEACH   PTCLDY    82  74  76 CALM      30.09S
FT LAUDER-EXEC CLEAR     81  73  76 SE3       30.07F
FT LAUDERDALE  PTCLDY    83  74  74 SE5       30.06F
POMPANO BEACH  CLEAR     83  74  74 SE3       30.07F
PEMBROKE PINES CLEAR     83  74  74 SE3       30.08F
OPA LOCKA      CLEAR     82  74  76 SE3       30.07F
MIAMI          PTCLDY    82  75  79 SE3       30.07F
WEST KENDALL   CLEAR     81  75  82 E3        30.06F
HOMESTEAD      PTCLDY    82  76  80 E6        30.05F

STATION/POSITION SKY/WX   TEMP    WIND        PRES    WAVE   SWELL
                          AIR SEA DIR/SP/G            HT/PER HT/PER
                          (F)     (DEG/KT/KT) (MB)    (FT/S) (FT/S)
PORT EVERGLADES            84     140/  8/ 10 1018.7F
VIRGINIA KEY               84 87              1018.9F
LAKE WORTH                 83 82              1018.5F
FOWEY ROCKS                83 84  100/ 11/ 12 1019.1F
SETTLEMENT POINT           81     130/  5/  6 1019.4F

$$





USA.gov is the U.S. government's official web portal to all federal, state and local government web resources and services.